Time,TemperatureF,DewpointF,PressureIn,WindDirection,WindDirectionDegrees,WindSpeedMPH,WindSpeedGustMPH,Humidity,HourlyPrecipIn,Conditions,Clouds,dailyrainin,SoftwareType,DateUTC
2013-06-28 00:44:00,67.0,47.0,-100.00,NE,45,11.0,15.0,48,0.00,,,-99.99,,2013-06-28 00:44:00,
2013-06-28 02:47:00,62.0,45.0,-100.00,ENE,61,12.0,14.0,53,0.00,,,-99.99,,2013-06-28 02:47:00,
2013-06-28 03:44:00,59.0,44.0,-100.00,East,92,12.0,14.0,58,0.00,,,-99.99,,2013-06-28 03:44:00,
2013-06-28 04:02:00,58.0,44.0,-100.00,East,82,11.0,14.0,59,0.00,,,-99.99,,2013-06-28 04:02:00,
2013-06-28 04:43:00,58.0,45.0,-100.00,East,96,11.0,12.0,60,0.00,,,-99.99,,2013-06-28 04:43:00,
2013-06-28 05:43:00,57.0,45.0,-100.00,East,82,12.0,13.0,64,0.00,,,-99.99,,2013-06-28 05:43:00,
2013-06-28 06:02:00,56.0,45.0,-100.00,East,86,11.0,12.0,65,0.00,,,-99.99,,2013-06-28 06:02:00,
2013-06-28 06:42:00,56.0,45.0,-100.00,East,85,11.0,14.0,65,0.00,,,-99.99,,2013-06-28 06:42:00,
2013-06-28 07:42:00,56.0,44.0,-100.00,East,86,9.0,11.0,64,0.00,,,-99.99,,2013-06-28 07:42:00,
2013-06-28 08:01:00,56.0,44.0,-100.00,East,82,7.0,9.0,64,0.00,,,-99.99,,2013-06-28 08:01:00,
2013-06-28 08:33:00,56.0,44.0,-100.00,East,85,7.0,9.0,63,0.00,,,-99.99,,2013-06-28 08:33:00,
2013-06-28 08:43:00,57.0,44.0,-100.00,East,90,6.0,7.0,61,0.00,,,-99.99,,2013-06-28 08:43:00,
2013-06-28 08:52:00,57.0,44.0,-100.00,East,89,6.0,7.0,61,0.00,,,-99.99,,2013-06-28 08:52:00,
2013-06-28 09:02:00,58.0,44.0,-100.00,East,89,5.0,6.0,60,0.00,,,-99.99,,2013-06-28 09:02:00,
2013-06-28 09:42:00,57.0,43.0,-100.00,NW,312,1.0,2.0,60,0.00,,,-99.99,,2013-06-28 09:42:00,
2013-06-28 10:02:00,56.0,44.0,-100.00,WNW,296,2.0,3.0,62,0.00,,,-99.99,,2013-06-28 10:02:00,
2013-06-28 10:42:00,55.0,43.0,-100.00,West,272,3.0,4.0,64,0.00,,,-99.99,,2013-06-28 10:42:00,
2013-06-28 11:43:00,55.0,42.0,-100.00,West,280,4.0,6.0,63,0.00,,,-99.99,,2013-06-28 11:43:00,
2013-06-28 12:43:00,58.0,43.0,-100.00,NW,309,2.0,3.0,57,0.00,,,-99.99,,2013-06-28 12:43:00,
2013-06-28 14:01:00,60.0,44.0,-100.00,ENE,75,7.0,9.0,55,0.00,,,-99.99,,2013-06-28 14:01:00,
2013-06-28 15:43:00,62.0,44.0,-100.00,ENE,68,11.0,14.0,52,0.00,,,-99.99,,2013-06-28 15:43:00,
2013-06-28 16:44:00,64.0,45.0,-100.00,ENE,65,12.0,17.0,50,0.00,,,-99.99,,2013-06-28 16:44:00,
2013-06-28 17:44:00,65.0,45.0,-100.00,ENE,59,16.0,22.0,49,0.00,,,-99.99,,2013-06-28 17:44:00,
2013-06-28 18:43:00,66.0,47.0,-100.00,ENE,65,16.0,22.0,51,0.00,,,-99.99,,2013-06-28 18:43:00,
2013-06-28 20:43:00,68.0,44.0,-100.00,ENE,59,17.0,24.0,42,0.00,,,-99.99,,2013-06-28 20:43:00,
2013-06-28 20:52:00,69.0,45.0,-100.00,ENE,62,16.0,23.0,43,0.00,,,-99.99,,2013-06-28 20:52:00,
2013-06-28 21:01:00,67.0,42.0,-100.00,NE,51,16.0,22.0,40,0.00,,,-99.99,,2013-06-28 21:01:00,
2013-06-28 23:43:00,67.0,45.0,-100.00,NE,55,17.0,24.0,44,0.00,,,-99.99,,2013-06-28 23:43:00,
2013-06-28 23:53:00,67.0,45.0,-100.00,NE,54,16.0,21.0,45,0.00,,,-99.99,,2013-06-28 23:53:00,